Wind_Speed
36 37 39 41 42 44 47 49 51 53 55 56 57 55 52 49 49 49 48 44 44 42 39 36 36 33 35 37 37 34 34 33 31 27 25 26 24 24 22 20 16 16 17 15
35 36 37 39 41 43 46 48 50 50 54 57 57 55 51 50 50 51 50 46 46 45 42 42 38 36 33 37 38 37 36 37 34 33 30 27 24 22 21 20 18 17 15 13
36 36 37 37 38 36 38 42 46 48 47 51 55 55 52 52 53 53 51 48 48 48 45 43 41 37 37 34 39 40 38 38 36 32 27 25 23 22 22 22 19 14 14 15
39 37 37 35 35 35 35 36 39 41 44 44 47 50 53 52 54 54 52 51 50 52 47 45 44 42 37 37 38 42 42 38 36 35 32 29 28 27 26 22 19 18 15 14
42 40 39 37 36 37 37 36 37 37 39 42 46 48 51 52 52 53 52 53 52 54 49 48 45 43 42 38 37 40 42 40 39 38 35 33 31 30 27 24 20 16 14 15
46 46 43 41 40 39 39 39 38 36 35 38 44 47 48 49 50 51 51 54 53 55 53 49 49 46 44 45 41 39 41 41 41 41 39 37 36 28 27 25 21 21 15 18
48 50 50 47 45 43 43 43 41 38 37 35 40 44 48 49 47 48 51 53 53 57 55 51 49 48 47 45 46 45 43 44 45 44 42 45 33 30 28 26 25 21 17 17
48 50 52 52 50 47 46 47 45 43 39 37 36 41 46 49 48 49 54 54 56 57 56 55 52 50 51 51 49 49 48 47 48 47 45 42 37 31 29 29 25 22 19 20
52 51 50 53 52 50 48 48 49 47 44 42 39 38 42 46 49 45 49 53 54 56 56 55 58 55 54 54 54 53 52 51 51 50 49 44 35 32 30 28 24 25 21 21
45 49 51 51 52 53 52 50 49 49 49 47 44 41 41 43 48 51 45 53 56 55 53 55 57 60 55 55 54 55 55 53 53 51 50 45 38 34 32 30 25 25 24 23
35 41 45 48 50 51 53 51 51 50 49 50 49 47 43 43 45 47 49 51 54 54 56 59 57 59 61 57 56 55 55 53 52 52 51 47 38 34 33 28 30 31 26 23
29 33 37 39 40 44 50 52 52 52 51 51 52 51 49 47 46 46 46 53 52 53 52 56 59 58 60 61 58 57 58 56 52 50 47 42 37 34 36 36 36 34 31 26
24 27 30 33 34 32 37 45 48 51 52 52 52 53 54 54 50 49 47 47 53 54 53 53 57 59 57 60 63 58 57 54 52 51 49 43 41 39 38 40 40 37 35 32
19 21 23 23 29 31 22 26 33 46 48 50 52 55 55 56 55 52 49 49 50 55 55 54 54 56 58 57 58 61 59 54 52 51 47 43 42 39 41 42 42 41 38 36
9 14 18 19 18 29 28 26 25 22 28 42 46 50 55 57 57 57 54 52 53 51 43 54 57 54 58 58 58 58 59 59 53 50 41 39 39 44 46 44 40 41 40 38
2 4 8 16 16 22 29 27 25 25 19 34 33 34 41 55 58 57 58 57 57 58 55 42 44 56 55 59 60 58 56 54 54 49 43 43 43 47 46 42 42 40 39 39
11 10 10 13 17 21 27 25 22 19 25 27 25 24 29 42 53 57 58 59 61 61 64 62 49 46 54 57 59 58 56 54 51 52 47 45 45 45 46 45 44 42 40 38
18 15 14 16 21 22 25 25 26 22 22 21 26 19 21 28 34 45 54 58 64 64 64 64 63 58 56 63 59 57 58 55 53 51 50 48 47 47 49 48 45 44 42 39
26 21 19 20 20 22 21 21 20 21 18 21 24 17 16 20 24 32 41 51 59 65 66 66 66 67 65 57 56 59 54 54 50 51 51 50 49 48 48 48 46 45 44 43
33 30 25 23 18 22 23 20 21 28 27 20 18 12 7 15 19 22 28 39 50 60 67 66 72 69 58 58 55 55 53 53 53 52 51 49 52 51 49 48 46 44 43 44
43 36 23 20 23 24 25 26 25 24 15 4 12 10 14 12 10 16 23 26 33 50 59 65 71 68 60 56 53 51 49 50 52 52 50 49 49 52 53 49 48 46 45 43
41 39 27 25 26 29 29 30 28 32 29 5 2 6 13 16 22 20 21 23 32 34 35 46 67 63 62 59 55 50 48 48 47 49 50 48 50 48 48 51 49 47 45 45
40 43 35 32 36 36 35 30 31 24 11 6 4 8 14 17 18 25 22 26 38 37 30 24 59 59 63 62 60 56 49 50 45 45 47 50 47 45 47 47 47 45 44 46
41 36 36 38 37 33 31 24 21 22 18 18 21 15 18 20 23 26 28 29 38 47 31 19 39 51 57 63 62 60 56 50 45 42 43 46 47 47 44 44 45 45 48 49
36 37 37 32 25 23 24 21 18 19 22 22 26 30 33 29 30 33 37 36 37 39 29 30 45 47 56 62 63 61 56 54 47 44 42 40 39 42 44 44 44 46 46 46
37 34 31 27 21 15 19 21 21 24 27 27 30 27 29 31 33 34 36 35 31 36 30 30 30 41 52 53 60 57 52 50 48 49 44 41 40 39 42 48 48 46 46 47
31 26 22 20 21 17 17 19 24 28 29 26 25 26 35 35 34 33 23 20 40 25 18 12 19 32 38 43 53 45 49 49 51 48 52 45 42 42 46 47 48 50 47 43
Wind_Direction
262 259 256 255 253 251 248 244 242 239 236 235 234 233 232 229 229 230 233 229 228 230 225 226 226 230 225 222 225 227 226 226 227 227 233 237 238 236 236 240 242 242 240 239
263 260 257 254 252 250 249 247 244 241 239 236 234 231 229 228 226 228 230 227 225 230 225 224 224 223 225 222 222 224 224 224 223 225 229 235 238 235 236 238 237 238 239 240
261 258 255 252 251 248 247 248 245 243 240 238 235 232 228 225 224 225 226 225 223 227 226 224 223 225 224 225 221 221 222 222 224 228 235 237 235 232 234 233 233 233 232 240
258 253 252 250 247 246 243 241 242 239 239 235 232 231 229 225 224 223 224 222 222 223 228 223 222 221 221 223 224 223 222 223 223 226 230 231 229 229 228 228 226 227 227 240
256 252 250 250 247 245 242 240 239 238 234 232 230 227 226 225 225 222 223 223 220 224 225 224 221 221 220 223 225 226 225 224 223 224 228 232 232 230 228 226 224 227 226 239
253 251 248 246 247 246 244 239 238 238 234 233 228 225 223 225 224 221 220 223 220 222 221 223 220 219 218 219 221 223 225 223 223 224 227 230 231 231 231 226 220 224 224 227
253 251 249 247 246 247 243 239 237 236 235 233 230 226 223 222 224 222 220 222 219 222 222 220 221 218 218 219 220 221 222 221 222 225 228 232 230 230 230 225 223 227 224 236
252 248 247 247 244 243 243 239 235 234 233 233 230 228 225 222 222 223 224 221 223 223 222 217 220 218 217 217 217 220 223 224 226 228 230 235 231 230 230 229 225 229 229 235
248 245 245 244 244 241 240 240 236 233 229 231 230 227 227 226 221 221 225 223 223 225 222 221 218 218 219 217 218 219 222 224 227 230 232 233 229 232 233 232 224 233 233 237
246 243 241 241 242 241 238 237 235 232 229 227 229 228 225 228 227 219 220 225 224 224 223 224 223 219 221 221 220 221 223 224 228 233 236 235 231 230 233 231 226 233 237 240
245 240 237 237 237 237 238 236 235 233 231 228 226 229 228 225 229 227 217 223 226 226 229 226 226 225 222 223 221 222 225 226 229 233 237 238 234 234 233 231 227 230 233 236
243 236 235 229 229 233 234 236 235 234 233 231 228 226 230 229 225 228 224 222 224 228 229 230 226 228 227 224 225 223 226 226 228 232 236 239 237 235 233 229 227 229 236 235
249 238 226 223 221 220 231 233 236 233 232 232 231 229 227 230 229 226 226 225 223 225 226 230 230 229 229 228 226 226 228 228 229 230 232 234 237 236 235 233 231 229 233 238
249 237 223 219 216 212 217 225 227 234 233 232 232 231 229 227 229 227 224 222 223 228 226 226 231 232 232 231 231 230 228 228 229 231 231 231 233 234 236 235 234 234 234 238
245 232 221 211 211 209 211 215 214 233 248 238 234 233 231 229 227 228 225 222 219 219 229 232 228 231 233 232 232 230 229 229 229 231 234 231 230 230 233 235 234 236 238 240
271 212 213 209 200 207 204 209 213 208 240 254 239 235 236 231 227 227 227 226 221 218 216 213 232 230 231 233 232 230 231 231 231 231 231 228 227 232 231 235 238 237 237 239
241 228 233 225 211 209 209 205 204 215 242 251 246 243 243 238 230 227 227 228 226 222 219 219 214 227 232 231 229 227 229 230 229 230 229 230 228 230 233 233 234 237 238 241
236 226 229 227 222 214 211 210 210 213 226 242 256 272 259 256 242 233 229 228 229 225 223 222 222 221 229 230 227 227 227 227 229 229 227 227 227 228 232 234 236 238 240 242
236 222 221 223 221 212 206 214 221 225 228 250 252 268 245 253 254 245 236 233 231 230 226 224 224 223 226 230 231 231 228 227 227 230 230 226 228 230 231 234 235 238 242 244
234 217 219 223 216 211 212 210 216 228 239 252 261 204 201 244 245 249 243 237 235 233 230 228 227 227 227 230 232 233 232 228 227 227 230 230 228 229 231 233 234 235 237 239
217 223 225 218 215 215 208 217 223 216 199 183 183 229 240 247 271 247 244 232 234 234 232 236 232 227 227 229 232 234 232 231 228 226 227 230 231 230 230 232 232 234 236 238
210 223 217 208 212 215 212 224 213 219 230 196 174 282 259 254 257 276 245 221 214 220 234 238 234 223 228 228 231 233 233 233 229 226 226 228 231 234 235 232 235 235 235 237
200 207 213 209 207 217 214 214 210 211 199 178 174 273 304 249 265 267 251 233 206 201 212 237 232 225 227 228 229 231 232 236 232 227 226 228 229 233 235 237 235 232 234 238
195 204 201 208 211 212 210 211 221 239 221 224 231 253 258 284 276 261 249 244 218 206 201 221 231 229 226 228 229 229 230 234 235 229 230 229 228 231 234 235 236 238 237 234
190 189 197 207 210 214 219 218 227 228 235 246 263 271 277 261 267 275 275 246 224 204 209 214 226 225 221 220 225 226 227 232 232 232 228 225 228 231 233 234 233 236 239 241
187 197 211 215 221 232 233 244 252 252 254 260 267 282 264 265 291 286 276 255 199 178 178 185 202 215 222 222 220 223 224 228 233 231 229 225 227 232 233 233 234 234 238 241
194 207 217 220 224 234 248 259 262 263 268 273 271 276 277 279 284 284 278 225 179 176 171 189 213 203 203 215 217 217 221 223 228 231 231 232 231 234 235 236 237 238 239 242
Height
5544 5546 5548 5549 5551 5554 5559 5564 5570 5573 5579 5587 5593 5601 5609 5618 5623 5628 5635 5643 5649 5654 5659 5664 5668 5674 5679 5683 5688 5694 5698 5701 5706 5710 5712 5715 5717 5720 5723 5725 5729 5730 5731 5734
5532 5534 5535 5537 5540 5541 5545 5550 5555 5559 5566 5573 5581 5588 5597 5605 5612 5617 5624 5632 5639 5645 5650 5655 5660 5665 5671 5676 5682 5686 5691 5694 5698 5702 5707 5709 5712 5716 5718 5721 5723 5725 5727 5729
5521 5522 5524 5527 5528 5530 5534 5538 5543 5547 5552 5559 5567 5575 5584 5591 5599 5604 5612 5621 5628 5634 5640 5646 5652 5657 5663 5668 5674 5678 5683 5688 5693 5699 5703 5706 5708 5710 5713 5715 5718 5722 5723 5724
5509 5511 5513 5515 5518 5519 5524 5528 5531 5535 5540 5548 5555 5562 5572 5578 5586 5592 5599 5608 5616 5622 5630 5636 5642 5648 5655 5660 5665 5671 5676 5682 5687 5691 5695 5698 5702 5704 5706 5710 5714 5717 5719 5720
5495 5498 5501 5503 5507 5510 5514 5517 5520 5524 5530 5536 5542 5549 5558 5566 5572 5581 5589 5596 5603 5610 5619 5625 5632 5640 5646 5652 5658 5663 5669 5675 5680 5684 5688 5691 5695 5698 5702 5705 5709 5712 5714 5715
5481 5484 5488 5492 5495 5499 5503 5506 5510 5515 5520 5525 5531 5539 5548 5554 5560 5569 5577 5583 5590 5598 5605 5614 5621 5629 5635 5641 5648 5654 5661 5667 5672 5676 5680 5683 5687 5694 5697 5701 5704 5706 5709 5709
5465 5468 5472 5478 5482 5487 5491 5495 5500 5505 5511 5515 5520 5528 5534 5541 5549 5557 5564 5571 5579 5586 5593 5602 5611 5618 5625 5632 5638 5645 5651 5658 5662 5667 5672 5672 5685 5688 5691 5695 5697 5701 5704 5705
5446 5451 5456 5461 5467 5473 5477 5482 5488 5494 5501 5506 5511 5517 5524 5529 5536 5546 5552 5561 5567 5574 5582 5590 5598 5607 5613 5620 5628 5634 5642 5648 5653 5658 5663 5669 5677 5682 5686 5688 5693 5696 5698 5699
5427 5433 5439 5444 5450 5457 5464 5468 5475 5482 5489 5496 5501 5508 5513 5519 5524 5534 5544 5548 5555 5564 5571 5577 5584 5594 5603 5610 5616 5623 5630 5637 5644 5648 5653 5660 5671 5676 5680 5683 5689 5690 5692 5694
5408 5414 5421 5428 5435 5441 5448 5454 5461 5469 5476 5484 5491 5497 5503 5508 5514 5523 5532 5537 5544 5553 5560 5567 5575 5583 5591 5598 5607 5615 5619 5626 5633 5641 5646 5654 5663 5669 5673 5677 5687 5684 5686 5687
5394 5399 5405 5413 5419 5426 5431 5439 5447 5455 5464 5472 5478 5485 5492 5499 5504 5512 5522 5528 5535 5543 5550 5558 5564 5570 5580 5587 5596 5604 5611 5618 5624 5631 5637 5646 5656 5661 5667 5672 5674 5676 5678 5681
5384 5388 5394 5400 5406 5412 5418 5425 5432 5442 5451 5458 5464 5473 5480 5486 5494 5502 5510 5518 5524 5530 5538 5547 5553 5560 5567 5578 5583 5593 5599 5606 5615 5623 5631 5640 5647 5652 5656 5660 5664 5667 5671 5675
5376 5380 5384 5390 5396 5402 5407 5413 5420 5429 5437 5444 5453 5460 5466 5474 5483 5490 5501 5508 5513 5519 5528 5535 5541 5547 5556 5564 5573 5581 5588 5598 5605 5612 5620 5630 5636 5641 5646 5649 5653 5659 5663 5667
5371 5374 5378 5383 5388 5394 5400 5404 5410 5416 5424 5432 5438 5444 5454 5461 5470 5480 5489 5496 5503 5508 5515 5522 5529 5537 5544 5553 5560 5568 5578 5588 5596 5603 5611 5619 5625 5631 5634 5638 5644 5650 5655 5659
5368 5370 5373 5377 5383 5388 5393 5398 5403 5410 5416 5421 5427 5431 5439 5447 5457 5466 5475 5483 5490 5497 5503 5508 5517 5524 5531 5539 5547 5556 5567 5577 5586 5594 5604 5610 5614 5617 5621 5628 5635 5640 5646 5650
5368 5370 5372 5375 5378 5383 5387 5392 5399 5405 5408 5411 5418 5422 5426 5433 5443 5452 5461 5468 5476 5484 5490 5498 5503 5511 5518 5524 5535 5547 5556 5565 5576 5584 5591 5596 5602 5605 5612 5620 5625 5630 5635 5639
5365 5367 5370 5372 5375 5378 5382 5389 5395 5401 5404 5405 5409 5414 5418 5421 5429 5438 5446 5453 5461 5468 5476 5485 5493 5500 5503 5509 5519 5534 5543 5552 5561 5569 5579 5585 5592 5597 5603 5609 5613 5618 5624 5630
5360 5363 5365 5368 5371 5374 5378 5384 5389 5393 5397 5399 5403 5411 5414 5413 5417 5423 5429 5437 5441 5452 5463 5473 5481 5487 5490 5493 5511 5521 5531 5540 5549 5557 5566 5573 5579 5586 5591 5598 5604 5609 5615 5619
5354 5357 5360 5363 5366 5371 5378 5381 5385 5389 5393 5395 5401 5406 5409 5407 5409 5413 5419 5421 5429 5437 5446 5458 5466 5470 5475 5495 5502 5510 5522 5532 5541 5545 5552 5561 5568 5575 5581 5587 5594 5599 5604 5610
5346 5349 5352 5359 5365 5369 5373 5377 5380 5384 5386 5390 5396 5399 5401 5401 5403 5405 5409 5412 5420 5427 5439 5445 5444 5457 5476 5480 5492 5500 5510 5518 5525 5533 5541 5550 5556 5563 5569 5576 5582 5588 5593 5597
5335 5341 5349 5356 5359 5364 5368 5370 5376 5379 5380 5384 5391 5395 5397 5397 5398 5398 5399 5404 5409 5416 5427 5428 5435 5451 5468 5477 5482 5490 5500 5506 5514 5524 5531 5538 5544 5550 5556 5563 5570 5576 5582 5587
5331 5336 5346 5352 5355 5359 5363 5365 5371 5371 5376 5381 5386 5390 5392 5392 5393 5393 5395 5396 5398 5407 5412 5412 5419 5454 5460 5469 5475 5482 5489 5496 5504 5512 5520 5527 5533 5540 5545 5552 5559 5565 5571 5576
5325 5332 5339 5345 5350 5352 5355 5360 5364 5368 5374 5377 5383 5386 5385 5385 5388 5387 5388 5388 5392 5395 5398 5404 5422 5444 5448 5457 5465 5472 5479 5485 5494 5502 5509 5515 5522 5528 5535 5541 5547 5553 5559 5564
5320 5327 5334 5338 5341 5347 5353 5359 5364 5367 5370 5374 5378 5379 5379 5380 5380 5379 5381 5380 5380 5383 5394 5406 5418 5425 5434 5442 5450 5459 5468 5475 5484 5493 5499 5505 5511 5518 5524 5530 5535 5540 5545 5550
5318 5325 5329 5334 5341 5346 5351 5355 5359 5363 5365 5368 5370 5371 5373 5374 5370 5370 5371 5371 5373 5382 5394 5401 5403 5405 5412 5421 5431 5444 5456 5464 5473 5482 5489 5496 5501 5507 5514 5519 5523 5528 5532 5537
5319 5324 5328 5335 5341 5345 5349 5353 5355 5357 5358 5361 5362 5362 5363 5364 5363 5360 5359 5364 5369 5379 5383 5386 5389 5392 5404 5414 5423 5433 5445 5454 5462 5472 5480 5486 5492 5497 5502 5506 5512 5517 5521 5526
5319 5324 5330 5335 5339 5343 5345 5348 5350 5351 5352 5354 5354 5355 5356 5353 5351 5352 5355 5360 5369 5373 5377 5381 5384 5387 5395 5403 5409 5421 5433 5442 5450 5458 5466 5474 5480 5484 5489 5495 5500 5505 5512 5517